Regional Weather Roundup
Issued by NWS

Home | Current Version | Previous Version | Graphics & Text | Print | Product List | Glossary Off
Versions: 1 2 3 4 5 6 7 8 9 10 11 12 13 14 15 16 17 18 19 20 21 22 23 24 25 26 27 28 29 30 31 32 33 34 35 36 37 38 39 40 41 42 43 44 45 46 47 48 49 50

000
ASUS43 KTOP 271159
RWRKS

WEATHER ROUNDUP FOR KANSAS
NATIONAL WEATHER SERVICE GOODLAND KS
700 AM CDT MON MAR 27 2017

NOTE:  "FAIR" INDICATES FEW OR NO CLOUDS BELOW 12,000 FEET WITH NO
SIGNIFICANT WEATHER AND/OR OBSTRUCTIONS TO VISIBILITY.

KSZ001>006-013>018-027>032-041>047-271300-
NORTHWEST KANSAS

CITY           SKY/WX    TMP DP  RH WIND       PRES   REMARKS
GOODLAND       CLEAR     34  33  96 W7        29.93R
6HR MIN TEMP:  33; 6HR MAX TEMP:  37;

HAYS             N/A     46  44  93 NW7       29.95S
HILL CITY      CLEAR     32  32 100 CALM      29.95F
6HR MIN TEMP:  32; 6HR MAX TEMP:  44;

RUSSELL        CLOUDY    46  45  96 N9        29.94R
6HR MIN TEMP:  45; 6HR MAX TEMP:  46;

$$

KSZ061>065-074>080-084>089-271300-
SOUTHWEST KANSAS

CITY           SKY/WX    TMP DP  RH WIND       PRES   REMARKS
DODGE CITY     CLEAR     33  33 100 N6        29.95R
6HR MIN TEMP:  33; 6HR MAX TEMP:  42;

ELKHART          N/A     34  27  76 W8          N/A
GARDEN CITY    CLEAR     33  32  96 NW6       29.93S
6HR MIN TEMP:  33; 6HR MAX TEMP:  39;

GREAT BEND     CLOUDY    46  44  93 N6        29.95R
LIBERAL        CLEAR     34  27  75 NW6       29.96R
$$

KSZ066>073-081>083-090>101-271300-
SOUTHEAST KANSAS

CITY           SKY/WX    TMP DP  RH WIND       PRES   REMARKS
CHANUTE        CLOUDY    50  47  89 N12       29.82S
6HR MIN TEMP:  50; 6HR MAX TEMP:  54; 6HR PCP:  0.05;

COFFEYVILLE    CLOUDY    52  50  93 NW9       29.82R
6HR MIN TEMP:  52; 6HR MAX TEMP:  54; 6HR PCP:  0.23;

HUTCHINSON     CLOUDY    47  46  97 N7        29.92R FOG
6HR MIN TEMP:  47; 6HR MAX TEMP:  47; 6HR PCP:  0.02;

MEDICINE LODGE   N/A     47  44  90 N14       29.93R
NEWTON         CLOUDY    45  44  97 N15       29.89S
PARSONS        CLOUDY    51  49  92 N10       29.83R
6HR MIN TEMP:  51; 6HR MAX TEMP:  55; 6HR PCP:  0.08;

WICHITA INTL   CLOUDY    48  45  89 N14       29.89R
6HR MIN TEMP:  48; 6HR MAX TEMP:  50; 6HR PCP: TRACE;

WICHITA JABRA  CLOUDY    47  46  97 N12       29.89R
6HR MIN TEMP:  46; 6HR MAX TEMP:  48; 6HR PCP: TRACE;

WICHITA MCCONL CLOUDY    47  45  90 N14       29.88R
WINFIELD       CLOUDY    49  46  90 N15       29.88R
6HR MIN TEMP:  49; 6HR MAX TEMP:  51; 6HR PCP: TRACE;

$$

KSZ007>012-019>026-033>040-048>060-102>105-271300-
NORTHEAST KANSAS

CITY           SKY/WX    TMP DP  RH WIND       PRES   REMARKS
CONCORDIA      CLOUDY    44  44 100 NW7       29.93R
6HR MIN TEMP:  44; 6HR MAX TEMP:  46; 6HR PCP:  0.01;

EMPORIA        CLOUDY    45  45 100 N10       29.84F
6HR MIN TEMP:  45; 6HR MAX TEMP:  48; 6HR PCP:  0.05;

LAWRENCE       CLOUDY    46  46 100 NW9       29.88R
6HR MIN TEMP:  46; 6HR MAX TEMP:  48; 6HR PCP:  0.19;

MANHATTAN      CLOUDY    46  44  93 N7        29.88F
6HR MIN TEMP:  46; 6HR MAX TEMP:  47; 6HR PCP:  0.15;

OLATHE IND     CLOUDY    46  45  96 N12       29.86R
6HR MIN TEMP:  46; 6HR MAX TEMP:  47; 6HR PCP:  0.40;

OLATHE EXE     LGT RAIN  46  46 100 N12       29.85R
6HR MIN TEMP:  46; 6HR MAX TEMP:  47; 6HR PCP:  0.38;

SALINA         CLOUDY    47  45  93 N10       29.92R
6HR MIN TEMP:  47; 6HR MAX TEMP:  49; 6HR PCP:  0.03;

TOPEKA BILLARD LGT RAIN  46  46 100 N8        29.88S
6HR MIN TEMP:  46; 6HR MAX TEMP:  47; 6HR PCP:  0.47;

TOPEKA FORBES  LGT RAIN  47  45  93 N10       29.87S
6HR MIN TEMP:  46; 6HR MAX TEMP:  48; 6HR PCP:  0.34;

$$




USA.gov is the U.S. government's official web portal to all federal, state and local government web resources and services.